Waarnemingen

Advertentie
Mijn weer
Barth, Duitsland (10180): temperatuur & dauwpunt: 15.01.2017 18:00:00 - 21.01.2017 18:00:00 (CET)Barth, Duitsland (10180): temperatuur 5cm & temperatuur -5cm: 15.01.2017 18:00:00 - 21.01.2017 18:00:00 (CET)Barth, Duitsland (10180): temperatuur -20cm & temperatuur -100cm: 15.01.2017 18:00:00 - 21.01.2017 18:00:00 (CET)Barth, Duitsland (10180): windsnelheid & windstoten: 15.01.2017 18:00:00 - 21.01.2017 18:00:00 (CET)Barth, Duitsland (10180): windrichting: 15.01.2017 18:00:00 - 21.01.2017 18:00:00 (CET)Barth, Duitsland (10180): luchtdruk: 15.01.2017 18:00:00 - 21.01.2017 18:00:00 (CET)Barth, Duitsland (10180): zicht: 15.01.2017 18:00:00 - 21.01.2017 18:00:00 (CET)Barth, Duitsland (10180): Zonneschijnduur: 15.01.2017 18:00:00 - 21.01.2017 18:00:00 (CET)Barth, Duitsland (10180): neerslag: 15.01.2017 18:00:00 - 21.01.2017 18:00:00 (CET)
Datum & Tijd tt [°C] td [°C] tt 5cm [°C] tt -5cm [°C] tt -20cm [°C] tt -100cm [°C] ff [km/u] ff [kn] fx [km/u] fx [kn] dd ppp [hPa] vv [km] sd [min] rr [mm]
21.01.2017 18:00:00 2,0 2,0 1,8 0,2 0,3 4,4 8 4 14 7 WZW 1031,4 3,4 0 0,0
21.01.2017 17:00:00 2,1 2,0 1,9 0,3 0,3 4,4 9 5 13 7 WZW 1031,4 2,7 0 0,0
21.01.2017 16:00:00 2,5 2,3 2,4 0,4 0,3 4,4 8 4 12 7 WZW 1031,1 2,0 0 0,0
21.01.2017 15:00:00 3,0 2,9 3,0 0,6 0,3 4,4 8 5 15 8 W 1031,0 5 0 0,0
21.01.2017 14:00:00 3,6 3,4 3,6 0,6 0,3 4,4 10 5 16 8 W 1031,2 6 0 0,0
21.01.2017 13:00:00 3,9 3,7 4,0 0,5 0,3 4,4 10 5 13 7 W 1031,4 4,6 0 0,0
21.01.2017 12:00:00 3,8 3,7 3,9 0,4 0,3 4,4 8 5 11 6 W 1031,6 2,3 0 0,0
21.01.2017 11:00:00 3,4 3,4 3,4 0,2 0,3 4,4 7 4 10 6 W 1031,9 1,3 0 0,0
21.01.2017 10:00:00 3,2 3,2 3,1 0,1 0,3 4,4 6 4 12 7 WZW 1031,7 1,0 0 0,0
21.01.2017 09:00:00 3,0 3,0 2,7 0,1 0,3 4,4 9 5 13 7 W 1031,3 1,3 0 0,0
21.01.2017 08:00:00 2,9 2,8 2,6 0,0 0,3 4,4 10 5 18 10 W 1030,9 1,9 0 0,0
21.01.2017 07:00:00 2,8 2,6 2,5 0,0 0,3 4,4 13 7 18 10 W 1030,8 2,2 0 0,0
21.01.2017 06:00:00 3,0 2,6 2,6 0,0 0,3 4,4 13 7 20 11 W 1030,8 3,6 0 0,0
21.01.2017 05:00:00 2,9 2,4 2,5 0,0 0,3 4,4 12 6 22 12 W 1031,2 3,9 0 0,0
21.01.2017 04:00:00 2,7 2,2 2,4 0,0 0,3 4,4 13 7 24 13 W 1031,2 3,5 0 0,0
21.01.2017 03:00:00 2,7 2,2 2,3 0,0 0,3 4,4 15 8 25 13 W 1031,4 3,5 0 0,0
21.01.2017 02:00:00 2,6 2,0 1,9 0,0 0,3 4,4 16 9 31 17 W 1031,5 3,8 0 0,0
21.01.2017 01:00:00 2,6 2,0 1,4 0,0 0,3 4,4 19 10 31 17 W 1031,6 4,3 0 0,0
21.01.2017 00:00:00 3,0 2,3 2,4 0,0 0,3 4,4 19 10 28 15 W 1032,0 4,5 0 0,0
20.01.2017 23:00:00 2,7 2,0 1,5 0,0 0,3 4,4 19 10 30 16 W 1032,2 4,5 0 0,0
20.01.2017 22:00:00 2,7 1,9 1,5 0,0 0,3 4,4 21 11 32 17 W 1032,2 5 0 0,0
20.01.2017 21:00:00 2,9 2,0 1,7 0,0 0,3 4,5 24 13 33 18 W 1032,1 6 0 0,0
20.01.2017 20:00:00 2,7 1,8 1,4 0,0 0,3 4,5 21 12 28 15 W 1032,1 6 0 0,0
20.01.2017 19:00:00 3,1 2,1 2,0 0,0 0,3 4,5 20 11 30 16 W 1032,3 6 0 0,0
20.01.2017 18:00:00 3,0 2,4 1,9 0,0 0,3 4,5 21 12 31 17 W 1032,6 4,5 0 0,0
20.01.2017 17:00:00 3,1 2,6 2,6 0,0 0,3 4,5 17 9 31 17 W 1032,8 4,0 0 0,0
20.01.2017 16:00:00 3,8 3,0 3,0 0,0 0,3 4,5 23 13 40 22 W 1032,7 7 0 0,0
20.01.2017 15:00:00 4,6 3,5 4,2 -0,1 0,3 4,5 21 11 39 21 W 1032,8 14 0 0,0
20.01.2017 14:00:00 4,6 3,4 4,4 -0,1 0,3 4,5 23 13 35 19 W 1032,9 13 0 0,0
20.01.2017 13:00:00 4,5 3,1 4,3 -0,1 0,3 4,5 24 13 37 20 W 1033,0 12 0 0,0
20.01.2017 12:00:00 4,4 3,1 4,2 -0,1 0,3 4,5 19 11 32 17 W 1033,4 10 0 0,0
20.01.2017 11:00:00 3,9 2,7 3,7 -0,1 0,3 4,5 22 12 33 18 W 1033,7 8 0 0,0
20.01.2017 10:00:00 3,4 2,5 3,0 -0,1 0,3 4,5 20 11 30 16 W 1033,8 5 0 0,0
20.01.2017 09:00:00 3,2 2,6 2,7 -0,1 0,3 4,5 19 10 25 14 W 1033,8 5 0 0,0
20.01.2017 08:00:00 2,5 2,2 1,8 -0,1 0,3 4,5 14 8 25 13 W 1033,5 2,7 0 0,0
20.01.2017 07:00:00 2,9 2,5 2,4 -0,1 0,3 4,5 17 9 25 14 W 1033,9 2,2 0 0,0
20.01.2017 06:00:00 2,8 2,2 2,3 -0,1 0,3 4,5 19 10 31 17 W 1033,9 2,9 0 0,0
20.01.2017 05:00:00 2,8 2,2 2,3 -0,1 0,3 4,5 22 12 31 17 W 1034,1 3,3 0 0,0
20.01.2017 04:00:00 2,7 2,3 2,2 -0,1 0,3 4,5 17 9 29 16 W 1034,1 2,6 0 0,0
20.01.2017 03:00:00 2,6 2,2 2,2 -0,1 0,3 4,5 21 12 35 19 W 1034,1 2,3 0 0,0
20.01.2017 02:00:00 2,6 2,0 2,2 -0,1 0,3 4,5 21 12 28 15 W 1034,4 3,2 0 0,0
20.01.2017 01:00:00 2,5 1,8 2,0 -0,1 0,3 4,5 19 11 29 16 W 1034,7 3,5 0 0,0
20.01.2017 00:00:00 2,3 1,7 1,9 -0,1 0,3 4,5 20 11 32 17 W 1035,0 3,1 0 0,0
19.01.2017 23:00:00 2,2 1,7 1,8 -0,1 0,3 4,5 22 12 31 17 WZW 1035,4 2,5 0 0,0
19.01.2017 22:00:00 2,2 1,9 1,9 -0,1 0,3 4,5 21 11 32 17 W 1035,3 2,0 0 0,0
19.01.2017 21:00:00 2,2 2,0 1,8 -0,1 0,3 4,5 21 11 29 16 WZW 1035,3 1,4 0 0,0
19.01.2017 20:00:00 2,1 1,9 1,7 -0,1 0,3 4,5 19 10 28 15 W 1035,2 1,7 0 0,0
19.01.2017 19:00:00 1,8 1,6 1,4 -0,1 0,3 4,5 17 9 25 13 W 1035,5 1,7 0 0,0
19.01.2017 18:00:00 1,1 1,0 0,9 -0,1 0,3 4,5 16 9 23 13 WZW 1035,5 1,3 0 0,0
19.01.2017 17:00:00 0,9 0,7 0,6 -0,1 0,3 4,5 15 8 22 12 WZW 1035,7 1,0 0 0,0
19.01.2017 16:00:00 1,0 0,8 0,8 -0,1 0,3 4,5 14 8 23 12 WZW 1035,7 1,6 0 0,0
19.01.2017 15:00:00 1,1 0,8 0,9 -0,1 0,3 4,5 16 9 28 15 WZW 1035,8 1,8 0 0,0
19.01.2017 14:00:00 0,9 0,5 0,9 -0,2 0,3 4,5 16 9 26 14 WZW 1036,0 2,1 0 0,0
19.01.2017 13:00:00 0,6 0,0 0,7 -0,2 0,3 4,5 16 9 29 16 WZW 1036,4 1,9 0 0,0
19.01.2017 12:00:00 0,8 -2,0 0,6 -0,2 0,3 4,5 18 10 28 15 WZW 1036,7 7 0 0,0
19.01.2017 11:00:00 0,7 -3,4 0,8 -0,2 0,3 4,5 17 9 28 15 WZW 1036,8 16 0 0,0
19.01.2017 10:00:00 0,4 -3,9 0,4 -0,3 0,3 4,5 15 8 22 12 WZW 1036,9 18 0 0,0
19.01.2017 09:00:00 0,3 -4,0 0,1 -0,3 0,3 4,5 12 7 24 13 ZW 1036,7 16 0 0,0
19.01.2017 08:00:00 0,2 -3,8 0,0 -0,3 0,3 4,5 13 7 24 13 ZW 1036,4 15 0 0,0
19.01.2017 07:00:00 0,0 -3,8 -0,1 -0,3 0,3 4,5 16 9 27 15 ZW 1036,0 14 0 0,0
19.01.2017 06:00:00 0,0 -3,5 -0,1 -0,3 0,3 4,5 18 10 31 17 ZW 1036,3 12 0 0,0
19.01.2017 05:00:00 0,0 -3,4 -0,1 -0,3 0,3 4,5 20 11 28 15 WZW 1036,6 11 0 0,0
19.01.2017 04:00:00 -0,1 -3,4 -0,3 -0,3 0,3 4,6 17 9 24 13 ZW 1037,2 10 0 0,0
19.01.2017 03:00:00 -0,2 -3,3 -0,3 -0,3 0,3 4,6 14 8 26 14 ZW 1037,4 10 0 0,0
19.01.2017 02:00:00 -0,3 -3,2 -0,4 -0,3 0,3 4,6 14 8 27 14 ZW 1037,6 9 0 0,0
19.01.2017 01:00:00 -0,4 -3,2 -0,5 -0,3 0,3 4,6 19 10 29 16 ZW 1037,5 8 0 0,0
19.01.2017 00:00:00 -0,4 -3,1 -0,5 -0,3 0,3 4,6 17 9 29 16 ZW 1038,0 8 0 0,0
18.01.2017 23:00:00 -0,4 -3,1 -0,5 -0,3 0,3 4,6 17 9 25 13 ZW 1038,0 9 0 0,0
18.01.2017 22:00:00 -0,3 -3,2 -0,4 -0,2 0,3 4,6 13 7 28 15 ZW 1037,9 10 0 0,0
18.01.2017 21:00:00 -0,3 -3,1 -0,4 -0,2 0,3 4,6 17 9 29 16 ZW 1037,9 10 0 0,0
18.01.2017 20:00:00 -0,2 -2,8 -0,3 -0,2 0,2 4,6 17 9 26 14 ZW 1038,3 10 0 0,0
18.01.2017 19:00:00 -0,2 -3,0 -0,4 -0,2 0,2 4,6 17 9 28 15 ZW 1038,4 11 0 0,0
18.01.2017 18:00:00 0,1 -2,9 -0,1 -0,2 0,2 4,6 19 10 26 14 ZW 1038,6 12 0 0,0
18.01.2017 17:00:00 0,3 -2,7 0,0 -0,2 0,2 4,6 15 8 25 13 ZW 1039,0 12 0 0,0
18.01.2017 16:00:00 0,6 -2,5 0,3 -0,2 0,2 4,6 13 7 26 14 ZW 1038,9 12 0 0,0
18.01.2017 15:00:00 0,8 -2,4 0,7 -0,2 0,2 4,6 18 10 28 15 ZW 1038,6 14 0 0,0
18.01.2017 14:00:00 0,8 -2,2 0,8 -0,2 0,2 4,6 18 10 26 14 ZW 1038,6 12 0 0,0
18.01.2017 13:00:00 0,5 -2,2 0,8 -0,2 0,2 4,6 15 8 23 13 ZW 1039,2 11 0 0,0
18.01.2017 12:00:00 0,2 -2,5 0,3 -0,3 0,2 4,6 15 8 22 12 ZW 1039,4 10 0 0,0
18.01.2017 11:00:00 0,2 -2,4 0,5 -0,4 0,2 4,6 16 8 22 12 ZW 1039,6 9 0 0,0
18.01.2017 10:00:00 -0,2 -2,3 -0,3 -0,5 0,2 4,6 14 8 22 12 ZW 1039,3 8 0 0,0
18.01.2017 09:00:00 -0,5 -2,3 -0,7 -0,5 0,2 4,6 11 6 17 9 WZW 1039,2 7 0 0,0
18.01.2017 08:00:00 -0,6 -2,5 -1,0 -0,6 0,2 4,6 9 5 14 8 ZW 1038,8 7 0 0,0
18.01.2017 07:00:00 -0,7 -2,7 -1,0 -0,6 0,2 4,6 7 4 13 7 WZW 1038,5 7 0 0,0
18.01.2017 06:00:00 -0,7 -2,6 -1,0 -0,6 0,2 4,6 8 4 15 8 ZW 1038,5 8 0 0,0
18.01.2017 05:00:00 -0,7 -2,8 -1,0 -0,6 0,2 4,6 7 4 16 8 ZW 1038,9 7 0 0,0
18.01.2017 04:00:00 -0,7 -2,9 -1,1 -0,6 0,2 4,6 9 5 16 9 ZZW 1038,8 14 0 0,0
18.01.2017 03:00:00 -0,7 -3,0 -1,0 -0,6 0,2 4,6 11 6 16 9 ZW 1039,2 18 0 0,0
18.01.2017 02:00:00 -0,6 -3,5 -0,9 -0,7 0,2 4,6 8 4 16 8 ZW 1039,2 25 0 0,0
18.01.2017 01:00:00 -0,7 -3,7 -1,0 -0,7 0,3 4,6 11 6 20 11 ZW 1039,0 31 0 0,0
18.01.2017 00:00:00 -0,9 -3,6 -1,3 -0,7 0,3 4,6 10 5 16 9 ZW 1039,1 36 0 0,0
17.01.2017 23:00:00 -1,0 -3,3 -1,7 -0,7 0,3 4,6 8 4 16 9 ZZW 1039,1 37 0 0,0
17.01.2017 22:00:00 -0,9 -3,6 -1,5 -0,7 0,3 4,6 10 6 14 8 ZW 1039,0 42 0 0,0
17.01.2017 21:00:00 -1,0 -3,2 -1,6 -0,7 0,3 4,6 9 5 13 7 ZW 1039,2 52 0 0,0
17.01.2017 20:00:00 -1,5 -3,3 -2,9 -0,7 0,3 4,6 6 4 9 5 ZW 1039,1 43 0 0,0
17.01.2017 19:00:00 -1,1 -2,7 -3,2 -0,6 0,3 4,6 7 4 9 5 ZZW 1038,7 28 0 0,0
17.01.2017 18:00:00 -1,2 -2,8 -2,8 -0,5 0,3 4,6 4 2 8 4 WZW 1038,2 70 0 0,0
17.01.2017 17:00:00 -1,0 -3,0 -2,3 -0,4 0,3 4,6 6 3 8 5 W 1038,1 70 0 0,0
17.01.2017 16:00:00 -0,1 -2,9 -1,2 -0,3 0,3 4,6 7 4 9 5 W 1037,9 70 1 0,0
17.01.2017 15:00:00 0,5 -2,8 0,3 -0,3 0,3 4,6 5 3 13 7 NNW 1037,7 70 2 0,0
17.01.2017 14:00:00 1,1 -2,9 0,8 -0,3 0,3 4,6 0 0 7 4 N 1037,5 70 3 0,0
17.01.2017 13:00:00 0,9 -2,8 1,0 -0,4 0,3 4,6 6 3 14 7 WNW 1037,4 56 36 0,0
17.01.2017 12:00:00 0,4 -2,4 0,4 -0,6 0,3 4,6 7 4 13 7 NW 1037,2 69 3 0,0
17.01.2017 11:00:00 -0,7 -1,8 -0,7 -1,0 0,3 4,7 6 3 8 5 W 1036,9 51 15 0,0
17.01.2017 10:00:00 -1,8 -2,3 -2,2 -1,1 0,3 4,7 3 2 7 4 WNW 1036,4 36 1 0,0
17.01.2017 09:00:00 -4,7 -5,1 -4,3 -1,7 0,3 4,7 4 2 9 5 W 1036,0 70 0 0,0
17.01.2017 08:00:00 -5,5 -6,2 -7,5 -1,7 0,3 4,7 3 2 9 5 WNW 1035,3 31 0 0,0
17.01.2017 07:00:00 -2,9 -3,7 -5,4 -1,2 0,3 4,7 3 1 10 5 W 1034,3 64 0 0,0
17.01.2017 06:00:00 -2,2 -3,0 -2,4 -1,0 0,3 4,7 9 5 10 6 WNW 1034,2 61 0 0,0
17.01.2017 05:00:00 -3,2 -4,1 -3,8 -1,2 0,3 4,7 5 3 9 5 W 1033,5 37 0 0,0
17.01.2017 04:00:00 -2,5 -3,4 -3,0 -1,2 0,3 4,7 5 3 8 5 O 1033,3 43 0 0,0
17.01.2017 03:00:00 -3,7 -4,0 -3,5 -1,6 0,3 4,7 0 0 5 3 N 1033,0 52 0 0,0
17.01.2017 02:00:00 -5,5 -6,0 -8,0 -1,9 0,3 4,7 3 1 5 3 ZZO 1032,3 41 0 0,0
17.01.2017 01:00:00 -5,9 -7,4 -8,2 -1,7 0,3 4,7 5 3 9 5 NNW 1032,0 46 0 0,0
17.01.2017 00:00:00 -1,3 -3,7 -6,1 -1,4 0,3 4,7 6 3 10 5 NNO 1031,3 70 0 0,0
16.01.2017 23:00:00 -1,5 -3,5 -5,6 -1,3 0,3 4,7 7 4 13 7 N 1030,8 70 0 0,0
16.01.2017 22:00:00 -4,0 -4,4 -4,9 -1,4 0,4 4,7 0 0 5 3 N 1030,2 44 0 0,0
16.01.2017 21:00:00 -3,4 -4,5 -7,1 -1,2 0,4 4,7 3 2 11 6 NNW 1029,5 63 0 0,0
16.01.2017 20:00:00 -2,7 -4,1 -3,6 -0,9 0,4 4,7 6 4 10 5 WNW 1028,8 63 0 0,0
16.01.2017 19:00:00 -0,9 -3,4 -4,8 -0,7 0,4 4,7 4 2 10 5 NNW 1028,2 70 0 0,0
16.01.2017 18:00:00 0,6 -2,9 -0,2 -0,6 0,4 4,7 5 3 15 8 NNW 1027,9 70 0 0,0
16.01.2017 17:00:00 0,4 -3,3 -1,3 -0,6 0,4 4,7 10 5 18 10 N 1027,6 70 12 0,0
16.01.2017 16:00:00 0,9 -2,6 0,2 -0,5 0,4 4,7 10 6 19 10 NNW 1027,2 70 60 0,0
16.01.2017 15:00:00 1,2 -3,6 1,1 -0,4 0,4 4,7 12 7 24 13 N 1026,5 66 60 0,0
16.01.2017 14:00:00 1,2 -3,7 0,8 -0,3 0,4 4,7 16 9 27 15 N 1026,2 24 60 0,0
16.01.2017 13:00:00 1,2 -3,1 1,1 -0,4 0,4 4,7 16 9 31 17 N 1025,8 48 60 0,0
16.01.2017 12:00:00 1,1 -3,0 0,8 -0,5 0,4 4,7 14 8 27 15 N 1025,8 70 40 0,0
16.01.2017 11:00:00 0,9 -2,2 0,8 -0,6 0,4 4,7 14 8 26 14 N 1025,4 42 13 0,0
16.01.2017 10:00:00 0,5 -2,2 0,0 -0,9 0,4 4,7 9 5 16 9 N 1025,1 70 0 0,0
16.01.2017 09:00:00 -0,4 -2,8 -2,0 -1,3 0,4 4,7 8 4 13 7 NNW 1024,4 70 0 0,0
16.01.2017 08:00:00 -1,2 -3,5 -3,8 -1,4 0,4 4,7 6 3 15 8 NNW 1023,8 70 0 0,0
16.01.2017 07:00:00 -1,1 -3,4 -3,2 -1,3 0,4 4,7 8 4 16 8 NNW 1023,4 70 0 0,0
16.01.2017 06:00:00 -1,1 -3,4 -3,3 -1,4 0,4 4,7 10 5 15 8 NNW 1022,9 70 0 0,0
16.01.2017 05:00:00 -1,2 -3,5 -3,4 -1,4 0,4 4,7 9 5 14 7 NNW 1022,4 70 0 0,0
16.01.2017 04:00:00 -1,5 -4,3 -3,5 -1,4 0,4 4,7 9 5 13 7 NNW 1022,4 70 0 0,0
16.01.2017 03:00:00 -2,0 -3,7 -4,6 -1,3 0,4 4,7 8 5 13 7 NNW 1022,3 70 0 0,0
16.01.2017 02:00:00 -5,7 -6,2 -8,9 -1,2 0,4 4,7 4 2 7 4 NW 1021,9 37 0 0,0
16.01.2017 01:00:00 -5,5 -6,2 -8,9 -0,9 0,4 4,7 5 3 7 4 NW 1021,7 53 0 0,0
16.01.2017 00:00:00 -4,5 -5,9 -7,7 -0,7 0,4 4,8 4 2 10 5 W 1021,3 70 0 0,0
15.01.2017 23:00:00 -0,7 -4,2 -4,4 -0,4 0,4 4,8 8 5 16 8 N 1020,8 70 0 0,0
15.01.2017 22:00:00 0,0 -2,2 -1,4 -0,2 0,4 4,8 11 6 16 9 NNW 1020,0 70 0 0,0
15.01.2017 21:00:00 -0,4 -2,6 -2,1 -0,2 0,4 4,8 7 4 14 7 NNW 1019,7 70 0 0,0
15.01.2017 20:00:00 -0,2 -2,7 -1,6 -0,1 0,4 4,8 9 5 19 10 NNW 1019,1 70 0 0,0
15.01.2017 19:00:00 0,1 -3,8 -2,3 -0,1 0,4 4,8 9 5 24 13 N 1018,3 70 0 0,0
15.01.2017 18:00:00 0,5 -3,0 -1,6 -0,1 0,4 4,8 10 5 23 12 N 1017,8 70 0 0,0

tt = temperatuur
td = dauwpunt
tt 5cm = temperatuur 5cm
tt -5cm = temperatuur -5cm
tt -20cm = temperatuur -20cm
tt -100cm = temperatuur -100cm
ff = windsnelheid
fx = windstoten
dd = windrichting
ppp = luchtdruk
vv = zicht
sd = Zonneschijnduur
rr = neerslag

Weerstations in de omgeving